Location: Colonia Mina de C?rbuni
(46.1667°N, 22.7167°E)
Time: 12:13:06
(UTC+00:00)

Cosmos 2278 - Pass Details

Date: 04 February 2023
Orbit: 838 x 853 km, 71.1° (Epoch: 25 March)

Event Time Altitude Azimuth Distance (km) Brightness Sun altitude
Rises 16:03:38 0° 210° (SSW) 3,386 7.7 -5.0°
Reaches altitude 10° 16:06:04 10° 212° (SSW) 2,457 7.0 -5.4°
Maximum altitude 16:11:43 74° 297° (WNW) 882 4.0 -6.3°
Drops below altitude 10° 16:17:26 10° 24° (NNE) 2,484 5.8 -7.3°
Sets 16:19:54 0° 26° (NNE) 3,426 6.5 -7.7°
